Date,TemperatureHighF,TemperatureAvgF,TemperatureLowF,DewpointHighF,DewpointAvgF,DewpointLowF,HumidityHigh,HumidityAvg,HumidityLow,PressureMaxIn,PressureMinIn,WindSpeedMaxMPH,WindSpeedAvgMPH,GustSpeedMaxMPH,PrecipitationSumIn
2013-10-1,74,51,32,26,18,10,64,31,13,30.11,29.93,6,1,6,0.00
2013-10-2,73,50,32,23,17,9,59,30,14,30.08,29.91,12,1,12,0.00
2013-10-3,71,50,34,29,18,10,71,33,14,29.93,29.73,14,2,15,0.24
2013-10-4,50,36,28,32,17,2,83,51,19,30.23,29.91,8,1,8,0.20
2013-10-5,50,37,29,15,10,4,52,35,16,30.35,30.20,8,1,8,0.00
2013-10-6,60,39,22,17,13,7,65,38,15,30.38,30.23,6,1,6,0.00
2013-10-7,68,45,26,24,16,7,70,36,14,30.29,30.02,6,1,6,0.00
2013-10-8,70,49,31,22,16,5,59,30,14,30.05,29.85,13,1,13,0.00
2013-10-9,70,49,32,22,16,7,59,30,14,29.93,29.82,8,0,8,0.00
2013-10-10,51,44,38,33,24,12,69,46,27,29.91,29.73,8,0,8,0.16
2013-10-11,54,43,37,35,25,17,78,53,26,30.08,29.82,7,0,7,0.00
2013-10-12,60,41,27,30,16,5,77,44,17,30.14,30.02,8,1,8,0.00
2013-10-13,67,45,28,31,18,11,73,40,15,30.08,29.91,7,1,7,0.00
2013-10-14,51,42,36,35,27,16,81,57,30,30.11,29.91,6,0,6,0.20
2013-10-15,54,41,34,30,21,11,70,47,20,30.11,30.02,6,0,6,0.00
2013-10-16,49,38,27,20,11,2,52,34,16,30.14,30.05,8,1,8,0.00
2013-10-17,54,37,22,18,9,0,68,36,15,30.14,29.96,7,1,8,0.00
2013-10-18,50,37,25,30,13,-4,79,42,16,30.17,29.99,8,1,8,0.04
2013-10-19,55,35,19,12,7,2,58,33,15,30.20,30.05,6,1,6,0.00
2013-10-20,58,39,23,14,10,2,56,33,15,30.08,29.93,8,0,8,0.00
2013-10-21,57,40,26,22,12,2,64,34,15,30.20,30.05,7,1,7,0.00
2013-10-22,61,39,22,16,10,5,57,33,16,30.26,30.11,6,0,6,0.00
2013-10-23,64,41,24,17,11,4,58,33,15,30.23,30.08,6,1,6,0.00
2013-10-24,66,42,25,17,11,2,54,31,14,30.23,30.08,6,0,6,0.00
2013-10-25,64,43,27,16,11,6,49,29,16,30.23,30.08,5,0,5,0.00
2013-10-26,63,42,26,21,12,2,60,33,14,30.29,30.17,6,0,6,0.00
2013-10-27,64,41,24,17,10,4,53,31,15,30.20,29.91,6,0,6,0.00
2013-10-28,65,44,28,19,11,0,58,29,14,29.91,29.76,14,1,14,0.00
2013-10-29,53,40,33,28,15,1,79,42,16,29.93,29.79,15,1,15,0.35
2013-10-30,49,36,32,36,24,14,84,65,28,29.96,29.88,7,0,7,0.16
2013-10-31,43,35,32,29,22,14,77,60,33,30.05,29.93,5,0,5,0.12